Location: Carrières
(48.9495°N, 2.0407°E)
Time: 21:13:13
(UTC+00:00)

Transit 2A - Pass Details

Date: 20 April 2024
Orbit: 594 x 957 km, 66.7° (Epoch: 18 May)

Event Time Altitude Azimuth Distance (km) Brightness Sun altitude
Rises 08:14:10 0° 259° (W) 2,892 8.6 32.0°
Reaches altitude 10° 08:16:48 10° 275° (W) 2,029 7.8 32.4°
Maximum altitude 08:20:23 22° 327° (NNW) 1,450 7.2 33.0°
Drops below altitude 10° 08:24:13 10° 18° (NNE) 2,186 8.4 33.5°
Sets 08:27:11 0° 34° (NNE) 3,181 9.3 34.0°
